Regional Weather Roundup
Issued by NWS

Home | Current Version | Previous Version | Text Only | Print | Product List | Glossary On
Versions: 1 2 3 4 5 6 7 8 9 10 11 12 13 14 15 16 17 18 19 20 21 22 23 24 25 26 27 28 29 30 31 32 33 34 35 36 37 38 39 40 41 42 43 44 45 46 47 48 49 50
000
ASUS43 KMKX 280821
RWRWI

WISCONSIN REGIONAL WEATHER ROUNDUP
NATIONAL WEATHER SERVICE MILWAUKEE/SULLIVAN WI
300 AM CDT THU AUG 28 2014

NOTE: "FAIR" INDICATES FEW OR NO CLOUDS BELOW 12,000 FEET WITH NO
SIGNIFICANT WEATHER AND/OR OBSTRUCTIONS TO VISIBILITY.

WIZ001-002-006>008-014>016-023>028-280900-
NORTHWEST WISCONSIN

CITY           SKY/WX    TMP DP  RH WIND       PRES   REMARKS
SUPERIOR ARPT  CLEAR     51  50  99 CALM      30.13S
ASHLAND        MOCLDY    49  48  97 CALM      30.16F
HAYWARD        CLEAR     48  46  93 CALM      30.16F
SIREN          CLOUDY    56  54  92 SE3       30.14S
RICE LAKE      PTCLDY    54  50  86 CALM      30.17S
LADYSMITH      CLEAR     53  49  88 E5        30.18S
EAU CLAIRE     PTCLDY    55  55 100 NE6       30.15S
MENOMONIE      SUNNY     57  55  95 CALM      30.15F
NEW RICHMOND   CLOUDY    60  56  87 E5        30.14F
OSCEOLA        CLOUDY    62  56  81 SE5       30.16S
$$

WIZ003>005-009-010-017-018-280900-
NORTH CENTRAL WISCONSIN

CITY           SKY/WX    TMP DP  RH WIND       PRES   REMARKS
WOODRUFF       CLEAR     51  48  90 CALM      30.18F
RHINELANDER    CLEAR     46  43  89 CALM      30.19F
EAGLE RIVER    CLEAR     42  42 100 CALM      30.19F
LAND O LAKES   CLEAR     40  40 100 CALM      30.20F
PHILLIPS       CLEAR     47  46  95 CALM      30.17S
TOMAHAWK       CLEAR     41  40  97 CALM      30.18F
MEDFORD        CLEAR     49  47  92 E3        30.17S
MERRILL        CLEAR     45  45 100 CALM      30.18S
$$

WIZ029-030-035-036-043>047-280900-
CENTRAL WISCONSIN

CITY           SKY/WX    TMP DP  RH WIND       PRES   REMARKS
WAUSAU         CLEAR     54  48  80 CALM      30.16F
MOSINEE        CLEAR     52  50  93 NE6       30.17F
MARSHFIELD     CLEAR     55  49  80 NE5       30.16F
STEVENS POINT  CLEAR     52  49  89 CALM      30.17S
WAUPACA        PTCLDY    58  57  96 CALM      30.16S
WAUTOMA        LGT RAIN  57  56  97 CALM      30.16S
WISC RAPIDS    CLEAR     57  52  83 NE5       30.17F
CAMP DOUGLAS   PTCLDY    54  54 100 W5        30.14S
$$

WIZ011>013-019>022-031-037>040-048>050-280900-
NORTHEAST WISCONSIN

CITY           SKY/WX    TMP DP  RH WIND       PRES   REMARKS
ANTIGO         CLEAR     48  47  97 CALM      30.18S
STURGEON BAY   PTCLDY    57  50  77 S6        30.18R
GREEN BAY      MOCLDY    56  55  97 CALM      30.17S
MANITOWOC      MOCLDY    55  54  96 CALM      30.17S FOG
APPLETON       CLOUDY    59  54  82 SW5       30.16S
CLINTONVILLE   MOCLDY    55  54  94 N3        30.16S
OSHKOSH        CLOUDY    60  57  89 CALM      30.15S
$$

WIZ032>034-041-042-053>061-280900-
SOUTHWEST WISCONSIN

CITY           SKY/WX    TMP DP  RH WIND       PRES   REMARKS
LA CROSSE      CLEAR     61  59  93 CALM      30.12F
SPARTA         CLEAR     53  52  95 CALM      30.15S
VIROQUA        FAIR      58  58 100 E5        30.14F
BOSCOBEL       FOG       61  59  93 CALM      30.13F VSB 1/4
PRAIRIE DU CHI CLEAR     59  58  95 E3        30.11F
PLATTEVILLE    FAIR      62  60  93 E8        30.13F
$$

WIZ056-057-062-063-064-067-068-280900-
SOUTH CENTRAL WISCONSIN

CITY           SKY/WX    TMP DP  RH WIND       PRES   REMARKS
BARABOO/DELLS  CLEAR     57  55  94 CALM      30.14F
LONE ROCK      FOG       63  59  87 CALM      30.13F VSB 1/4
WATERTOWN      CLEAR     56  56 100 CALM      30.14F
MADISON        CLEAR     60  58  92 CALM      30.14F
MIDDLETON      FAIR      57  57  99 CALM      30.15F
MONROE         FOG       61  61 100 E5        30.14S VSB 1/4
JANESVILLE     PTCLDY    61  59  94 CALM      30.14S
$$

WIZ051-052-058>065-066-070>072-280900-
SOUTHEAST WISCONSIN

CITY           SKY/WX    TMP DP  RH WIND       PRES   REMARKS
MILWAUKEE      CLEAR     62  56  80 CALM      30.15S
WAUKESHA       CLEAR     54  54 100 CALM      30.17S
MILWAUKEE/TIMM CLEAR     57  54  88 CALM      30.17R
RACINE         PTCLDY    61  56  83 CALM      30.17R
BURLINGTON     PTCLDY    56  56 100 CALM      30.15F
KENOSHA        MOCLDY    58  57  97 CALM      30.16S
FOND DU LAC    MOCLDY    60  56  86 S3        30.16S
SHEBOYGAN      CLOUDY    56  54  93 CALM      30.16F
WEST BEND      CLEAR     54  52  94 CALM      30.17R
JUNEAU         CLEAR     58  56  95 E3        30.16F
$$

LSZ147-162-280900-
LAKE SUPERIOR

STATION/POSITION TIME  TEMP    WIND        PRES    WAVE
                       AIR SEA DIR/SP/G            HT/PER
                 (UTC) (F)     (DEG/KT/KT) (MB)    (FT/S)
W MID LAKE BUOY  0750   58 57  150/  6/  6 1020.9F   0
DEVILS ISLAND    0800   61     200/  6/  6 1020.7F
PORT WING        0740   58     150/  4/  6 1020.7F
SAXON HARBOR     0700   55     190/  5/  7 1021.3S
$$

LMZ867-665-643>646-280900-
LAKE MICHIGAN

STATION/POSITION TIME  TEMP    WIND        PRES    WAVE
                       AIR SEA DIR/SP/G            HT/PER
                 (UTC) (F)     (DEG/KT/KT) (MB)    (FT/S)
N MID LAKE BUOY  0750   63 65  140/  4/  6 1021.8F   1
NORTHPORT PIER   0700   64     100/  7/  9 1021.7F
SISTER BAY       0641   59        CALM       N/A
ALGOMA LAKESHORE 0653          110/ 13/ 14   N/A
KEWAUNEE LAKESHO 0800   63     130/  5/  9 1020.6S
SHEBOYGAN LAKESH 0800   63 70   CALM  /  1 1021.6S
ATWATER BUOY     0800   68     100/  8/ 10 1022.1R
MILWAUKEE LAKESH 0800   67     110/  8/  9   N/A
S MID LAKE BUOY  0750   66 69   70/ 12/ 16 1020.9R   1/ 3
KENOSHA   LAKESH 0800   69      90/ 10/ 11 1020.7S
$$

TC  - TEMPERATURE IN CELSIUS
VSB - VISIBILITY IN STATUTE MILES
WCI - WIND CHILL INDEX
HX  - HEAT INDEX



USA.gov is the U.S. government's official web portal to all federal, state and local government web resources and services.